Theta_e
278 278 278 278 278 278 278 278 278 278 278 278 278 278 278 278 277 277 277 277 276 276 276 276 276 277 275 275 275 275 275 275 272 274 275 276 276 275 276 277 278 277 277
279 278 278 278 278 278 278 278 279 278 278 278 278 278 278 278 277 277 276 277 276 276 276 276 276 277 275 275 275 274 274 274 273 271 273 274 274 275 275 275 277 278 277
278 278 278 278 278 277 278 278 278 276 276 277 278 278 278 278 277 277 277 277 276 276 276 275 275 276 275 275 274 274 274 275 274 273 272 274 274 275 274 275 276 276 277
278 278 277 277 278 277 278 278 278 277 275 273 273 274 274 275 277 277 278 277 276 276 277 276 276 275 275 275 275 275 275 274 274 273 273 273 273 274 274 273 273 275 274
278 277 278 278 278 278 278 278 278 278 278 275 273 271 271 273 276 274 277 276 276 276 276 277 277 277 279 279 277 275 274 274 274 273 273 273 272 271 271 273 273 273 273
277 277 278 278 278 278 278 278 278 278 277 277 274 272 271 275 280 283 282 276 277 277 276 277 277 276 277 281 282 282 281 277 275 274 274 273 273 273 273 273 272 271 268
275 276 276 277 276 276 276 276 276 275 275 274 273 271 268 271 279 282 282 279 277 276 276 276 277 277 276 276 278 281 281 281 281 278 275 275 273 274 274 272 271 271 271
272 272 273 273 273 273 272 271 271 271 269 268 266 265 264 269 278 280 280 273 270 272 272 273 273 273 273 274 275 274 273 274 275 275 275 275 275 275 275 274 273 270 264
268 268 269 271 270 270 270 268 266 266 264 263 266 264 263 265 276 278 278 270 272 271 271 271 271 271 275 279 276 275 276 276 278 280 280 281 281 281 281 277 270 265 268
265 266 267 268 269 267 267 268 267 263 264 265 265 264 264 262 273 276 277 273 268 269 267 270 275 273 278 280 277 276 274 274 274 273 273 275 278 277 280 278 273 268 266
264 264 265 266 267 267 266 266 264 263 263 260 262 262 263 263 265 275 276 273 271 272 271 270 267 277 278 279 279 277 276 277 278 277 276 273 272 271 270 271 272 270 267
262 262 262 263 265 265 264 264 263 262 261 260 260 262 264 265 270 272 274 274 275 271 270 271 270 276 278 278 278 278 279 278 275 273 272 271 268 269 269 271 271 268 268
259 258 259 260 262 263 262 261 261 261 259 259 262 261 263 266 266 270 271 273 274 271 271 272 275 275 276 275 275 276 274 271 270 270 270 270 270 268 260 257 257 261 261
257 258 259 258 259 260 261 262 261 259 259 262 262 262 263 264 264 266 268 269 271 271 271 270 272 272 271 270 267 269 268 268 267 267 268 269 269 259 260 262 261 260 259
258 258 257 258 258 259 260 260 261 262 264 263 262 264 263 262 264 270 270 269 269 270 270 265 261 261 261 261 262 262 263 263 263 265 266 267 268 263 262 259 260 259 258
258 258 257 257 257 258 257 257 262 264 266 267 268 267 266 268 269 270 270 271 271 272 260 252 257 258 258 258 258 259 260 260 263 262 262 263 264 265 263 261 258 256 254
255 256 255 256 256 255 255 255 254 257 262 263 265 266 266 267 268 268 269 269 270 266 250 255 255 256 256 257 258 258 258 260 260 261 261 262 263 262 261 260 258 255 256
251 253 253 253 253 253 253 253 253 252 251 253 259 262 264 265 265 266 267 267 255 256 250 254 253 254 255 256 256 257 258 259 259 260 260 261 258 258 258 258 254 253 255
250 250 249 249 249 250 250 250 250 249 250 251 252 255 256 261 262 264 264 251 252 253 253 252 253 253 254 255 256 256 256 256 258 258 259 259 256 256 256 256 255 255 255
244 248 248 246 247 246 247 247 248 247 248 249 250 251 252 252 252 254 250 246 248 251 252 252 253 254 255 255 255 256 256 256 257 257 257 257 257 258 258 258 256 255 255
244 245 247 244 243 245 244 245 247 248 248 249 250 252 259 257 255 253 252 252 252 252 253 253 254 254 255 255 255 255 255 256 256 257 257 257 257 257 258 258 256 256 254
243 243 242 241 245 245 244 246 248 247 248 248 249 251 258 253 252 252 252 252 253 253 254 254 254 255 255 255 256 256 256 256 256 256 256 257 257 257 257 256 256 255 254
242 241 243 242 244 245 246 244 245 247 248 248 249 250 251 250 251 251 251 252 252 252 253 254 254 255 256 257 257 257 257 256 257 257 257 256 256 256 256 255 255 254 253
240 242 243 242 241 242 243 245 246 247 248 249 250 249 250 250 250 250 251 252 252 252 253 254 255 255 256 257 258 258 258 258 258 258 258 256 256 256 256 255 255 254 253
241 241 242 242 241 243 244 245 246 246 247 248 248 249 249 249 250 251 252 252 252 253 254 255 256 257 257 257 257 257 258 258 258 258 258 257 256 255 255 255 254 254 253
243 242 243 243 243 242 242 244 245 245 246 247 248 248 249 249 250 250 251 252 253 254 254 255 256 256 256 256 256 257 258 260 259 260 260 259 258 256 256 254 253 253 252
Wind_Speed
8 7 7 6 6 5 5 5 5 4 4 5 5 5 5 5 4 3 3 3 3 3 3 3 4 3 3 3 3 3 3 3 6 5 4 6 8 6 8 6 7 7 7
9 8 8 6 6 7 6 6 5 5 4 5 5 5 5 5 4 5 5 3 5 5 5 4 5 3 5 4 3 5 4 4 4 11 6 6 6 7 9 10 8 8 7
7 8 7 7 7 7 7 6 5 3 3 4 3 5 5 5 5 5 5 5 5 6 5 5 6 5 6 4 5 5 4 6 6 7 9 5 5 6 7 8 8 8 8
8 8 8 8 8 7 6 6 6 5 3 3 3 3 3 3 4 5 5 6 6 6 7 7 7 7 8 7 6 7 6 6 6 7 9 8 7 6 6 9 8 5 8
7 7 9 6 6 6 6 6 5 5 5 3 2 3 3 2 3 4 6 5 6 7 8 8 8 9 15 13 6 6 7 7 7 8 10 8 8 5 7 6 9 8 8
4 4 5 5 5 4 3 4 4 3 2 2 0 2 2 2 9 12 10 6 7 8 10 8 8 9 12 19 20 21 16 9 10 8 10 11 12 8 8 8 9 9 7
9 7 7 6 7 6 6 6 6 5 5 4 4 4 4 3 10 12 13 5 5 7 8 8 7 6 9 10 16 21 20 22 22 15 15 13 14 10 10 10 11 10 11
11 10 9 8 8 7 8 7 5 3 4 3 3 3 3 4 10 11 13 4 4 6 6 7 8 8 7 10 11 12 12 12 12 11 13 14 13 12 12 12 12 7 3
11 10 8 7 7 6 7 5 3 4 3 3 2 4 3 5 12 13 11 3 5 7 6 6 7 8 14 19 13 13 14 12 14 24 26 28 28 27 23 11 5 3 10
8 7 6 6 7 7 5 5 3 3 2 3 4 3 3 4 13 15 12 3 4 5 5 6 12 9 18 21 13 11 13 12 9 11 12 18 21 17 24 14 5 7 5
5 6 7 6 7 6 5 4 3 4 4 4 4 5 4 3 8 15 16 7 5 8 6 6 3 17 22 23 23 12 13 15 17 14 12 10 10 8 6 7 7 7 6
6 7 7 6 6 5 5 5 4 5 4 4 5 4 3 5 11 14 18 17 16 7 8 7 7 22 26 27 23 25 28 25 10 10 9 8 6 6 7 8 8 7 8
7 7 6 6 7 6 5 5 3 4 3 3 3 3 5 5 4 16 18 18 18 12 8 17 27 27 26 17 21 27 21 9 9 10 10 10 8 7 3 3 3 4 6
7 6 5 5 5 5 4 4 3 3 3 4 4 5 5 4 4 7 7 8 12 11 15 11 15 18 18 17 12 12 8 8 9 9 10 10 7 2 3 3 2 1 3
6 5 5 5 5 5 5 4 5 3 5 6 4 5 6 7 7 18 17 11 10 14 18 5 7 7 9 8 8 8 8 8 9 9 9 11 10 4 4 2 2 1 4
6 5 5 4 4 4 4 5 8 9 13 13 14 11 7 17 22 23 24 24 26 27 4 3 8 8 9 9 9 9 8 8 6 9 9 9 10 7 4 2 2 3 5
5 5 3 4 4 4 4 4 7 9 13 12 13 17 19 20 23 24 25 26 24 15 2 7 8 8 9 9 9 9 10 8 9 9 9 9 7 7 8 6 5 4 7
4 4 2 2 3 2 3 4 4 5 7 9 13 17 18 22 24 25 25 21 7 6 3 8 8 8 8 9 9 9 9 8 9 9 9 9 4 6 8 8 4 4 6
3 2 2 2 2 3 4 4 4 5 6 8 8 10 9 21 22 22 20 2 6 10 7 6 6 8 8 8 8 9 9 10 10 9 10 8 6 6 9 7 6 8 8
2 4 3 2 2 3 3 4 5 5 6 7 7 8 7 8 7 5 2 2 4 7 7 7 7 7 8 9 9 9 9 9 9 9 9 8 8 8 9 8 5 7 7
1 2 4 2 2 3 4 4 5 6 7 8 8 8 20 12 9 8 7 6 6 7 8 8 9 9 8 8 9 9 9 9 9 9 9 9 9 9 9 7 7 7 7
1 2 2 3 3 4 4 4 6 7 8 9 9 8 20 7 8 9 9 8 7 7 8 9 9 9 9 9 9 9 10 10 9 9 9 9 9 9 8 8 8 7 7
2 3 4 3 4 5 5 4 6 7 8 8 9 9 7 8 8 9 9 9 8 8 8 8 9 10 9 9 9 10 10 10 9 9 10 10 9 9 8 8 8 8 7
3 4 5 4 3 4 5 6 7 9 9 9 9 9 9 8 9 10 10 9 9 9 9 9 10 13 12 12 10 10 10 9 9 10 12 10 10 10 8 8 8 9 8
4 4 4 5 5 5 6 6 7 8 8 9 9 9 9 9 9 10 10 9 9 10 11 10 9 13 15 15 15 18 17 19 15 15 10 12 13 13 10 8 9 8 9
5 5 5 4 5 5 5 7 8 8 8 9 9 9 9 9 9 10 10 10 10 10 13 10 12 16 17 15 17 18 18 19 16 16 12 10 10 9 7 9 10 8 9
Wind_Direction
181 183 184 195 199 190 195 210 210 201 203 198 206 200 199 208 215 228 243 249 252 268 262 252 263 248 250 241 246 231 226 213 252 275 270 300 299 294 304 298 289 292 298
185 173 189 182 186 190 202 210 197 216 214 220 225 224 220 224 226 229 243 249 248 255 257 256 256 262 250 238 233 239 233 224 243 274 275 285 274 288 293 294 293 294 295
170 179 179 189 189 203 206 205 206 200 222 236 217 228 240 239 233 243 245 253 251 250 255 252 256 248 256 238 235 242 238 255 243 260 275 265 273 286 288 282 278 279 281
174 180 186 190 196 199 202 199 201 194 208 231 236 242 242 243 240 248 257 252 255 260 255 247 247 238 246 243 241 241 240 242 251 258 268 271 262 270 270 286 286 263 284
174 177 203 192 181 181 191 201 201 211 214 184 224 266 266 254 256 253 256 255 256 269 261 252 251 245 251 250 244 239 232 245 251 260 270 275 269 264 260 284 282 290 280
139 128 121 136 148 165 172 187 187 200 192 189 214 246 288 290 288 285 277 237 250 251 267 258 246 249 254 266 269 268 256 239 245 250 265 267 274 270 274 274 282 289 297
84 66 61 78 80 67 68 71 69 63 61 58 46 35 346 327 310 301 297 287 262 256 259 271 269 252 249 253 265 273 272 267 266 270 269 263 274 268 273 276 270 265 267
69 58 51 57 66 69 68 66 54 47 46 34 20 2 334 313 322 310 304 286 284 278 274 269 266 270 252 269 269 264 257 251 252 261 264 269 266 269 257 255 262 275 290
62 59 42 56 65 59 60 52 44 49 32 19 332 347 344 314 333 328 322 288 272 268 263 265 257 258 266 290 290 284 278 267 252 261 264 266 267 264 259 253 218 232 288
58 60 48 53 70 64 51 47 29 38 18 7 348 346 332 321 341 335 329 313 300 291 276 268 276 269 284 296 294 288 283 283 265 258 255 264 268 267 268 266 264 251 262
59 61 52 40 65 52 49 39 26 27 27 14 2 336 335 330 327 335 331 326 318 311 307 306 278 300 303 298 295 286 274 280 278 275 263 249 248 250 249 247 222 225 238
63 62 54 42 48 42 47 33 24 29 19 352 347 340 323 319 336 335 331 326 315 315 311 307 295 298 304 306 304 301 304 308 306 296 287 282 261 250 242 240 241 233 232
65 59 47 42 45 32 35 26 29 18 5 332 344 342 329 324 314 331 324 321 322 315 307 302 311 312 309 320 316 310 320 319 309 298 292 287 276 254 270 306 284 277 270
69 54 52 44 27 30 31 20 22 356 343 335 343 328 316 321 313 305 292 303 309 315 305 297 305 331 332 323 330 318 310 307 302 296 292 292 301 320 266 223 259 217 256
72 56 41 41 25 21 17 3 354 325 316 334 309 311 325 318 306 314 316 316 311 304 314 11 342 335 326 318 310 307 309 308 301 298 306 303 289 260 258 179 240 261 249
65 48 34 29 16 13 358 340 343 336 336 329 329 328 321 315 314 317 319 315 312 312 39 356 329 322 313 310 308 307 307 305 310 317 299 299 307 309 321 280 246 241 254
63 50 33 23 15 8 353 346 333 327 331 328 329 328 322 314 320 317 315 313 316 348 22 324 309 304 301 301 299 301 302 302 304 298 298 301 304 309 305 288 277 250 282
46 43 42 6 358 345 341 327 317 311 314 312 321 321 320 323 319 317 315 321 342 341 310 302 295 292 294 295 297 298 298 305 301 293 295 295 288 297 299 289 266 259 278
32 22 14 356 336 329 320 309 293 292 289 292 308 310 313 316 315 311 317 22 312 306 302 285 276 284 286 287 288 291 297 296 294 310 300 299 293 290 288 278 269 267 273
17 327 358 329 321 311 286 280 291 282 287 289 293 291 301 298 289 289 283 275 280 284 293 288 286 282 284 287 290 290 292 295 298 295 297 293 289 287 284 287 275 277 280
338 319 316 325 293 274 266 279 289 291 286 284 281 281 294 303 318 307 298 289 282 286 289 289 289 287 285 284 285 286 286 287 289 293 293 294 293 291 286 279 277 278 285
301 278 276 265 280 290 272 264 278 275 277 280 287 285 300 306 288 288 289 288 285 282 282 286 286 282 281 280 281 282 283 285 288 287 288 289 289 288 287 285 283 281 280
269 286 291 281 265 272 277 258 267 274 280 281 282 283 283 288 285 285 287 288 287 286 283 281 283 283 281 279 276 277 279 282 284 286 287 287 285 283 283 280 280 279 279
261 262 262 262 259 259 263 280 276 275 276 282 285 284 286 285 284 284 284 285 284 283 280 278 278 277 282 281 281 280 277 278 279 280 280 275 275 281 276 274 273 270 271
259 264 261 265 264 272 276 273 278 276 278 283 284 283 284 283 284 285 287 288 287 285 286 287 284 291 291 292 296 296 291 290 282 276 273 267 264 268 267 267 269 271 271
254 255 256 261 265 259 258 274 276 277 280 283 282 283 282 282 288 289 288 287 287 288 290 289 291 292 294 292 290 289 288 288 286 278 270 265 261 257 256 256 263 266 272